小惑星A/2019 C1

A/2019 C1

English version
Home page
Updated on January 25, 2020

---------------------------------------------------------------------

・ プロフィール

発見日 2019年2月5日
発見光度 17.75等
発見者 ATLAS-MLO (Mauna Loa)

・ 写真集

・ 軌道要素

Epoch 2020 Apr. 21.0 TT = JDT 2458960.5
T 2020 May 5.75652 TT                                   Williams
q   6.5812063            (2000.0)            P               Q
z  +0.0012016      Peri.  319.19271     -0.92231548     -0.22377931
 +/-0.0000043      Node   212.39709     +0.19027376     -0.97257255
e   0.9920923      Incl.   36.01651     -0.33634810     +0.06344642
H   10.0
From 155 observations 2019 Jan. 14-2020 Jan. 6, mean residual 0".4.

・ 光度変化

        H = 8.5  G = 0.15

---------------------------------------------------------------------

軌道要素はM.P.E.C. 2020-A105に掲載されたものです。
光度グラフはComet for Windowsで作成したものです。

---------------------------------------------------------------------

Copyright(C) Seiichi Yoshida (comet@aerith.net). All rights reserved.